P/2007 R1 ( Larson )

Japanese version
Home page
Total 6,336 html files since Dec. 4, 1995
Updated on April 4, 2008

---------------------------------------------------------------------

* Profile

Discovery Date September 4, 2007
Magnitude 18.2 mag
Discoverer S. Larson (Mt. Lemmon Survey)

* Pictures

* Orbital Elements

Epoch 2007 Aug. 8.0 TT = JDT 2454320.5
T 2007 Aug. 23.76187 TT                                 MPC
q   4.3521383            (2000.0)            P               Q
n   0.06667791     Peri.  175.14275     +0.99842552     +0.05595196
a   6.0230257      Node   181.66544     -0.05496751     +0.96175612
e   0.2774166      Incl.    7.87723     -0.01118304     +0.26813157
P  14.78

* Magnitudes Graph

        m1 = 9.0 + 5 log d + 10.0 log r

---------------------------------------------------------------------

The orbital elements are published on M.P.E.C. 2008-D54.
The magnitudes graphs are made with Comet for Windows.

---------------------------------------------------------------------

Copyright(C) 1995-2008 Seiichi Yoshida (comet@aerith.net). All rights reserved.